Погода в Сортавале

Погода в Сортавале : погода сейчас, прогноз погоды и архив. Всё, что Вы хотите узнать о погоде в Сортавале!

Хотите узнать прогноз погоды в Сортавале? Тогда Вам сюда: Погода в Сортавале

Поиск расширенной информации на нашем сайте:

Другие новости

Новости СМИ2

Главная страница сайта

Новости сайта

02.10.2013

Напоминаем, что на нашем новом сайте вы можете получить высокодетализированные прогнозы погоды по пунктам России, СНГ и мира (включающие важные для авиации метеовеличины, такие как направление и скорость ветра, видимость, явления погоды, количество и форма облачности, нижняя и верхняя граница облачности), а также ознакомиться с разнообразными материалами по авиационной метеорологии и подборкой полезных ссылок на эту тему.

Сайт Метеоцентр.Азия посвящён разработке технологий оптимизации авиаметеорологического обслуживания, включая проектирование и перспективное создание нескольких автоматизированных авиаметеорологических систем:
- система выпуска высокодетальных прогностических карт явлений погоды для нижнего воздушного пространства по России и ближнему зарубежью;
- система верификации прогнозов TAF (выпускаемых синоптиками официальных АМСГ РФ и ближнего зарубежья) и AUTOTAF (выпускаемых сайтом Метеоцентр.Азия) - выявление ошибок, онлайн-сопоставление с фактической погодой METAR, автоматическое внесение коррективов в прогнозы при резком отклонении фактической погоды от прогноза, подсчёт оправдываемости прогнозов по элементам и в целом;
- система обработки, анализа и отображения авиаметеорологической информации для применения провайдерами метеорологической информации.

Рекомендуем: Детальное описание автоваз официальный у нас.

Погода в Сортавале - сегодня

Время (UTC), дата Ветер
(°,м/с) 
Видим.   Явления Облачность Т
(°С)
Тd
(°С)
f(%) Тe
(°С)
Pmin
(гПа)
dP
(гПа)
Po
(мм)
O2
(г/м3)
Тmin Tmax R s Состояние
почвы
09 22.03.17 190 (Ю) 5{10}  20000 м  слаб. ливневой дождь  10/10 500 м кучево-дожд. 
[Cb cap]
+3.2 -0.8 75 +1  1000.4  -0.3  749  298           
12 22.03.17 220 (ЮЗ) 4{10}  21000 м  слаб. ливневой дождь  10/10 600 м кучево-дожд. 
[Cb cap]
+3.8 -0.4 74 +2  1002.2  1.8  750  298           
15 22.03.17 210 (ЮЗ) 3{10}  20000 м  слаб. ливневой дождь  10/10 600 м кучево-дожд. 
[Cb cap]
+3.4 -0.8 74 +2  1003.3  1.1  751  299      0.3     
18 22.03.17 210 (ЮЗ) 30000 м  {ливн. осадки}  10/10 660 м кучево-дожд. 
[Cb cap]
+2.7 -1.1 76 +2  1004.7  1.4  752  300    +4.1  0.4     
21 22.03.17 220 (ЮЗ) 50000 м    ясно 
+1.8 -1.1 81 +1  1005.6  0.9  752  301           
00 23.03.17 220 (ЮЗ) 50000 м    8/8 800 м 
[Sc]
+1.9 -1.6 78 1006.3  0.7  753  301           
03 23.03.17 230 (ЮЗ) 50000 м    9/9 960 м 
[Sc]
+1.5 -2.2 76 +1  1007.1  0.7  754  302  +1.5         
06 23.03.17 240 (ЮЗ) 20000 м    8/4 600 м средняя 
[Sc|Ac trans]
+1.9 -2.2 74 1008.4  1.3  755  302  +1      14  равномерный
мокрый или
старый снег
100% 
09 23.03.17 280 (З) 20000 м    6/3 600 м средняя 
[Sc|Ac trans]
+5.2 -3.4 54 +4  1009.4  1.1  755  299           
12 23.03.17 280 (З) 4-10{11}  20000 м    3/3 600 м 
[Sc]
+5.4 -8.6 36 +4  1011.1  1.7  757  300           
15 23.03.17 270 (З) 3{11}  20000 м    1/1 600 м 
[Sc]
+4.8 -10.7 31 +4  1012.6  1.5  758  301           
18 23.03.17 230 (ЮЗ) 50000 м    1/1 600 м 
[Sc]
+2.3 -9.6 41 +2  1013.2  0.5  758  304    +5.8       
21 23.03.17 240 (ЮЗ) 50000 м    4/0 верхняя 
[Ci fib]
+0.5 -8.6 50 1013.1  -0.1  758  306           
00 24.03.17 240 (ЮЗ) 50000 м    3/0 верхняя 
[Ci fib]
-1.3 -8.3 59 -2  1012.5  -0.6  758  308           
03 24.03.17 260 (З) 50000 м    3/0 средняя, верхняя 
[Ac trans|Ci fib]
-2 -7.5 66 -3  1012.2  -0.3  757  308  -2.2         
06 24.03.17 270 (З) 20000 м    8/0 верхняя 
[Ci fib]
-0.9 -5.8 69 -3  1012.2  757  307  -2.2      10  равномерный
мокрый или
старый снег
100% 
09 24.03.17 290 (З) 5-10{13}  20000 м  {ливн. осадки}  10/0 средняя 
[Ac As]
+0.1 -8.4 53 -3  1012.9  0.6  758  306           
12 24.03.17 290 (З) 4{12}  20000 м  {ливн. осадки}  8/0 средняя, верхняя 
[Ac trans|Ci fib]
+1.5 -9.4 44 -1  1013.9  1.1  759  305           
15 24.03.17 290 (З) 4{12}  20000 м    ясно 
+2.4 -9.3 42 1014.4  0.4  759  304      0.0     
18 24.03.17 290 (З) 50000 м    ясно 
+0.1 -9.5 48 -2  1015.4  760  307    +2.9  0.0     
21 24.03.17 290 (З) 50000 м    ясно 
-1.5 -9.9 53 -2  1015.8  0.4  760  309           
00 25.03.17 220 (ЮЗ) 50000 м    ясно 
-5.1 -9.9 69 -5  1015.3  -0.5  760  313           
03 25.03.17 200 (Ю) 50000 м    6/0 верхняя 
[Ci fib]
-7 -10.6 75 -7  1014.5  -0.8  759  315  -7.1         
06 25.03.17 тихо ()   50000 м    9/0 средняя, верхняя 
[Ac trans|Ci fib]
-2.7 -9.1 61 -3  1013.7  -0.8  758  310  -7.8      10  равномерный
мокрый или
старый снег
100% 
09 25.03.17 120 (ЮВ) 50000 м    9/0 средняя, верхняя 
[Ac trans|Ci fib]
+1.8 -8.9 45 +3  1013.4  -0.3  758  304           
Время (UTC), дата Ветер
(°,м/с) 
Видим.   Явления Облачность Т
(°С)
Тd
(°С)
f(%) Тe
(°С)
Pmin
(гПа)
dP
(гПа)
Po
(мм)
O2
(г/м3)
Тmin Tmax R s Состояние
почвы

Для получения пояснительной информации подведите курсор к названию столбца.

ПОГОДА в Сортавале - архив

Всё, что Вы хотите узнать о погоде в Сортавале - удобно и подробно!

Выберите нужную дату (начиная с 1 января 2015* года) и нажмите кнопку "Найти".
Будут отображены архивные сводки погоды по пункту Сортавала, начиная с указанной даты.


Отображать данные в формате CSV (для использования в таблицах Excel)


Внимание! Наш архив погоды предназначен исключительно для личного некоммерческого использования в познавательных целях. Если Вам необходимы официальные справки о состоянии погоды (для производственных, юридических, коммерческих и т.п. целей), обращайтесь в органы Росгидромета.

*Примечание: данная дата относится к архиву по метеостанциям СССР (Россия, СНГ, Балтия).
Архив по метеостанциям Зарубежной Европы и Азии (кроме Китая) хранится 10 дней, по другим регионам земного шара (Китай, Африка, Америка, Австралия, Океания) - 1 день.

Сортавала - район местоположения метеостанции


Название, широта, долгота, высота метеостанции:
Сортавала 61.7°ш. 30.7°д. 19 м над ур. моря [Российская Федерация]

Дополнительная информация

В oтличие oт бoльшинства пoгoдных сайтoв мы публикуем пoдрoбную метеoинфoрмацию в детальнoм прoфессиoнальнoм фoрмате.

Характеристики температуры и влажнoсти вoздуха измеряются на высoте 2 м в тени вдали oт зданий и деревьев.
Скoрoсть ветра измеряется на высoте 10 м (на урoвне рoста челoвека скoрoсть ветра ниже в 1.5-2 раза). Если метеoстанция нахoдится в гoрoде или в лесу, тo скoрoсть ветра занижена на 2-4 м/с пo сравнению с oткрытым местoм. Скoрoсть ветра над акватoриями крупных рек и oзёр, а также на вершинах хoлмoв на 2-5 м/с выше, чем в oбычных услoвиях.
Атмoсфернoе давление в разных тoчках местнoсти мoжет значительнo oтличаться oт давления на метеoстанции, в зависимoсти oт услoвий рельефа (при пoдъёме на 10 м давление пoнижается примернo на 1 мм рт.ст.).